Zurück zum Katalog

DELTA 1 DEB

AktivSSO
NORAD 10825·DEBRIS·🇺🇸 United States

Gestartet Jul 29, 1976 von Vandenberg Space Force Base

Loading…

Nächste Überflüge (nächste 24 Stunden)

TLE

AktuellSource: Space-Track

Epoche: Sep 14, 2026, 09:34 UTC

1 10825U 76077BV  26257.39870998 -.00000004  00000-0  32738-3 0  9999
2 10825 102.2922 217.7938 0044716  40.5666 113.5211 12.34780799258304

Verfolge DELTA 1 DEB in Echtzeit mit AllMySat

Download on the App Store